AJISAI (EGS)

Last updated on July 7, 2021, 6:13 p.m. UTC

1 16908U 86061A   21188.17640330 -.00000095  00000-0  13873-4 0  9990
2 16908  50.0104 300.7205 0011236 262.7576 166.2073 12.44493941255852
UTC
Height (km)
Latitude
Longitude
Inclination
Orbital Period
UTC large
Height (km)
Speed (km/s)
/
Latitude / Longitude
Inclination (degrees)
Orbital Period (minutes)
Azimuth
Elevation
Range (km)
Doppler Factor
iOS Compass Heading
iOS Angle